Find Starlink 5577

NORAD ID: 55751 Int'l Des: 2023-028 Owner: SPXS Country: US Constellation: starlink operational
LEOCIRCULAR

Live Position

Loading 3D Globe...

About Starlink 5577

Description loading...

Upcoming Passes

Passes for default location (London). Set your location on the main map for personalized predictions.

Altitude History

Loading altitude history...

Two-Line Element Set

1 55751U 23028L 26133.15137758 .00002138 00000-0 18693-3 0 9994
2 55751 69.9995 82.0171 0003062 270.1456 89.9352 14.98324938175692
Epoch: May 13, 2026 • Age: 4 hours

Current Status

Altitude 594.1 km
Velocity 7.56 km/s
Sub-Earth Point -64.82°S, 38.47°E
Launch Date Mar 3, 2023
Age 3.1 years
Type internet

Technical Details

Classification Payload
Mass 305.00 kg
Dry Mass 290.00 kg
Total Mass 305.00 kg
Length 0.20 m
Diameter 2.80 m
Span 9.00 m
Shape Box + pan
Manufacturer SPXS
Bus Type Starlink
Phase Status In Orbit
Owner/State SPXS/US

Most Searched